User: anonymous   Login
Location: Unspecified
(0.0000°N, 0.0000°E)
Time: 06:08:40
(UTC+00:00)
Language:

SOHLA-1 (MAIDO-1) - Orbit

View from above orbital plane
View from above orbital plane
View from above satellite
View from above satellite

Ground track
Ground track

The orbit data is extracted from the following two-line orbital elements,

1 33496U 09002E   17296.47546394 +.00000091 +00000-0 +23002-4 0  9994
2 33496 098.3320 089.1284 0005557 329.6193 030.4690 14.71719482469116
Epoch (UTC): 23 October 2017 11:24:40
Eccentricity: 0.0005557
inclination: 98.3320°
perigee height: 651 km
apogee height: 659 km
right ascension of ascending node: 89.1284°
argument of perigee: 329.6193°
revolutions per day: 14.71719482
mean anomaly at epoch: 30.4690°
orbit number at epoch: 46911

The dashed part of the orbit path shows where the satellite is in the earth's shadow,  

DLR